Location: Clay (historical)
(35.1476°N, 89.8179°W)
Time: 03:06:26
(UTC+00:00)

Cosmos 2360 Rocket - Pass Details

Date: 18 February 2026
Orbit: 834 x 843 km, 71.0° (Epoch: 6 March)

Event Time Altitude Azimuth Distance (km) Brightness Sun altitude
Rises 12:06:22 0° 212° (SSW) 3,365 5.1 -8.0°
Reaches altitude 10° 12:08:51 10° 217° (SW) 2,434 4.3 -7.5°
Maximum altitude 12:14:18 54° 294° (WNW) 1,008 2.3 -6.4°
Drops below altitude 10° 12:19:47 10° 12° (NNE) 2,448 4.6 -5.3°
Sets 12:22:18 0° 17° (NNE) 3,386 5.4 -4.8°
